Location: Leeds
(37.2390°N, 113.3580°W)
Time: 14:16:28
(UTC-06:00)

Daily predictions for brighter satellites

Satellite Brightness Start Highest point End
(mag) Time Altitude Azimuth Time Altitude Azimuth Time Altitude Azimuth
SPOT 5 4.4 21:12:52 10° ESE 21:15:34 16° ENE 21:18:14 10° NNE
Cosmos 1743 3.7 21:12:04 10° NNW 21:15:48 50° W 21:19:29 10° S
Lacrosse 4 Rocket 2.9 21:14:34 10° SE 21:17:09 17° ESE 21:19:45 10° ENE
H-2A R/B 2.9 21:14:32 10° SE 21:18:23 34° ENE 21:22:21 10° N
YAOGAN 11 4.1 21:15:02 10° SSE 21:19:19 64° ENE 21:23:36 10° N
CZ-4 DEB 2.9 21:19:45 10° S 21:22:58 82° W 21:26:12 10° NNW
deb Chang Zheng 4 3.9 21:18:46 10° NNE 21:22:59 45° E 21:27:08 10° S
Timation 1 Rocket 4.4 21:16:56 10° NNW 21:22:59 79° ENE 21:28:57 10° SSE
ERS-1 Rocket 3.3 21:18:39 10° SSE 21:23:30 52° ENE 21:28:22 10° N
Cosmos 2228 3.1 21:19:05 10° N 21:23:30 73° E 21:27:53 10° SSE
BREEZE-M DEB (TANK) 2.8 21:18:19 10° SW 21:25:14 87° SE 21:27:46 10° NE
Cosmos 1626 Rocket 3.7 21:20:56 10° S 21:25:17 58° E 21:29:37 10° NNE
Cosmos 2285 Rocket 4.4 21:20:37 10° NNW 21:26:54 67° WSW 21:33:11 10° S
Cosmos 1464 Rocket 4.0 21:22:45 10° N 21:28:56 89° E 21:35:08 10° S
GEOS 3 Rocket 3.9 21:24:08 10° SE 21:29:17 57° NE 21:34:23 10° NNW
Cosmos 1603 3.8 21:27:04 10° SSW 21:32:41 81° WNW 21:38:19 10° NNE
FENGYUN 3A 3.9 21:27:24 10° S 21:32:45 74° WSW 21:38:10 10° NNW
Meteor 1-15 Rocket 4.3 21:28:46 10° N 21:34:24 85° W 21:40:06 10° S
Atlas Centaur 2 3.1 21:31:20 10° WSW 21:37:52 50° S 21:45:41 10° ESE
Envisat 3.7 21:34:27 10° SE 21:39:03 38° ENE 21:43:44 10° N
Cosmos 407 Rocket 4.5 21:36:55 10° SSE 21:41:17 27° E 21:45:38 10° NE
Cosmos 1461 3.7 21:41:06 10° NW 21:45:09 45° WSW 21:49:00 10° S
Cosmos 1943 Rocket 4.2 21:43:38 10° NNE 21:46:36 14° NE 21:49:35 10° E
Cosmos 2034 Rocket 4.1 21:43:56 10° N 21:50:19 83° W 21:56:37 10° S
GRACE-1 3.9 21:47:29 10° N 21:50:20 60° E 21:52:38 14° S
GRACE-2 3.9 21:47:56 10° N 21:50:46 60° E 21:53:03 14° S
SJ-11-01 4.3 21:46:14 10° SSE 21:50:53 89° E 21:55:35 10° NNW
Nimbus 7 Rocket 4.4 21:45:35 10° NNE 21:51:30 66° ESE 21:57:18 10° S
Cosmos 1943 3.2 21:47:23 10° S 21:52:56 60° ESE 21:58:33 10° NNE
Cosmos 1939 Rocket 3.0 21:49:40 13° SSE 21:53:21 64° ENE 21:57:27 10° N
H-2A R/B 4.4 21:51:58 10° SSW 21:55:33 33° W 21:59:10 10° NNW
Cosmos 1346 Rocket 3.5 22:02:36 21° SE 22:04:33 34° E 22:08:07 10° NNE
Cosmos 1992 Rocket 3.9 22:09:16 10° NNW 22:14:30 81° ENE 22:18:00 21° SSE
SeaSat 1 2.9 22:15:27 23° SE 22:18:16 50° ENE 22:23:02 10° NNW
Cosmos 1758 Rocket 4.0 22:17:35 26° SE 22:19:30 41° E 22:23:37 10° NNE
ARGOS 3.9 22:18:20 23° ESE 22:21:03 37° ENE 22:26:00 10° N
ISS -0.2 22:19:05 10° WNW 22:21:18 17° NNW 22:23:32 10° NNE
COSMOS 2455 4.2 22:19:05 10° SW 22:24:44 42° WNW 22:30:27 10° NNE
USA 81 4.0 22:19:38 10° N 22:24:55 70° E 22:28:10 24° SSE
MetOp-B 4.1 22:26:40 24° SSE 22:29:57 79° ENE 22:35:20 10° N
Centaur D AC-28 3.7 22:29:22 10° SW 22:31:03 13° SSW 22:31:03 13° SSW
Cosmos 1825 Rocket 3.8 22:31:36 14° SSW 22:35:27 70° W 22:39:53 10° N
CZ-4B R/B 3.5 22:30:28 10° NNE 22:35:38 82° ESE 22:39:52 16° S
Cosmos 1766 3.8 22:34:02 10° N 22:37:52 42° E 22:38:30 38° ESE
Cosmos 2369 Rocket 2.2 22:32:26 10° NNW 22:38:07 85° WSW 22:41:02 30° SSE
Cosmos 1190 Rocket 4.4 22:32:58 10° SSW 22:38:14 66° WNW 22:43:33 10° NNE
PSLV R/B 4.3 22:35:58 10° WNW 22:39:23 44° N 22:41:09 24° ENE
YAOGAN 6 2.5 22:40:59 48° SSE 22:41:56 81° ENE 22:45:41 10° N
CZ-4 R/B 3.9 22:41:05 10° NNE 22:46:07 71° ESE 22:48:34 30° S
H-2A R/B 3.1 22:45:29 26° E 22:46:45 29° ENE 22:51:05 10° N
Cosmos 1140 Rocket 3.9 22:47:14 37° SE 22:48:13 41° ESE 22:53:07 10° NNE
NOAA 11 4.3 22:47:33 36° SE 22:49:40 62° ENE 22:55:00 10° N
SPOT 5 3.7 22:50:53 21° SSW 22:53:20 39° W 22:57:24 10° NNW
Terra 2.8 22:53:35 29° E 22:54:24 31° ENE 22:58:33 10° N
H-2A R/B 4.4 22:51:31 10° SW 22:54:29 18° W 22:57:30 10° NW
ATLAS 3B R/B 3.5 22:47:36 10° SW 22:55:11 60° NW 23:02:39 10° NNE
Cosmos 676 Rocket 4.1 22:50:52 14° SSW 22:55:32 79° WNW 23:00:54 10° NNE
Lacrosse 4 Rocket 3.0 22:51:51 10° SW 22:55:33 34° WNW 22:59:19 10° N
SPOT 1/Viking Rocket 3.5 22:53:34 36° S 22:55:44 84° WSW 23:00:55 10° NNW
DEBRIS 4.4 22:56:52 10° W 22:58:29 15° WSW 22:58:29 15° WSW
Cosmos 2084 4.2 22:56:36 10° NNW 23:00:31 39° NE 23:01:12 36° ENE
Cosmos 1805 4.2 23:02:06 10° N 23:05:21 34° ENE 23:05:21 34° ENE
NOSS 3-2 (A) 4.5 23:07:49 27° E 23:07:49 27° E 23:12:06 10° NE
Cosmos 614 Rocket 4.5 23:10:34 40° E 23:10:34 40° E 23:15:13 10° NNE
Cosmos 2263 4.4 23:05:58 10° NNW 23:11:31 62° WSW 23:13:26 40° S
USA 234 3.4 23:09:10 33° ESE 23:12:16 66° NE 23:18:46 10° NW
SL-24 R/B 4.5 23:09:34 10° N 23:14:40 79° E 23:16:03 51° S
CZ-4C R/B 3.3 23:14:31 79° SSE 23:14:46 90° WSW 23:18:49 10° NNW
COSMOS 2406 3.1 23:15:41 42° S 23:17:41 78° ESE 23:23:25 10° NNE
SL-27 R/B 3.1 23:18:59 50° NW 23:18:59 50° NW 23:21:58 10° N
Nadezhda 4 Rocket 4.0 23:19:25 47° SSE 23:21:05 65° E 23:27:21 10° NNE
DMSP B5D2-2 4.0 23:20:31 10° NNE 23:25:47 66° ESE 23:26:18 62° SE
Atlas Centaur 2 3.3 23:20:04 10° W 23:27:15 46° S 23:28:40 43° SSE
Cosmos-2242 3.0 23:23:53 10° N 23:28:18 75° W 23:28:28 74° WSW
Cosmos 1943 Rocket 2.1 23:25:25 10° NNW 23:31:00 80° WSW 23:31:58 61° S
Cosmos 1953 2.5 23:28:31 10° N 23:32:04 68° NNW 23:32:04 68° NNW
SL-08 RB Rocket 4.4 23:35:39 42° WSW 23:36:14 44° W 23:40:34 10° NNW
Cosmos 1656 Rocket 3.8 23:34:05 10° NNW 23:39:41 57° ENE 23:40:20 54° E
USA 238 DEB 4.1 23:33:23 10° SW 23:40:26 66° NW 23:47:29 10° NNE
USA 238 4.0 23:33:29 10° SW 23:40:32 67° NW 23:47:35 10° NNE
Spot 2 4.4 23:37:20 10° N 23:42:15 81° WNW 23:42:49 70° SW
Cosmos 1607 4.1 23:45:37 26° SW 23:49:16 71° WNW 23:55:30 10° NNE
SeaSat 1 4.3 23:55:15 18° WSW 23:55:58 19° WSW 23:59:26 10° WNW
